This is the latest recevied weather packets stored in our database for station/object lu6fg. If no packets are shown the sender has not sent any weather packets the latest 10 day(s).
| Time | Temp. | Humidity | Pressure | Rain* | Wind** | Luminosity | Snow |
|---|---|---|---|---|---|---|---|
| 1778254092 | 12.22° C | 46% | 1009.5 hPa | 0 mm | - | - | - |
| 1778254032 | 12.22° C | 47% | 1009.6 hPa | 0 mm | - | - | - |
| 1778253912 | 12.22° C | 47% | 1009.7 hPa | 0 mm | - | - | - |
| 1778253672 | 11.67° C | 49% | 1009.8 hPa | 0 mm | - | - | - |
| 1778253432 | 12.22° C | 48% | 1009.8 hPa | 0 mm | - | - | - |
| 1778253251 | 11.67° C | 49% | 1009.9 hPa | 0 mm | - | - | - |
| 1778253011 | 11.67° C | 51% | 1009.7 hPa | 0 mm | - | - | - |
| 1778252891 | 11.67° C | 49% | 1009.7 hPa | 0 mm | - | - | - |
| 1778252531 | 11.67° C | 49% | 1009.8 hPa | 0 mm | - | - | - |
| 1778252171 | 11.11° C | 50% | 1010 hPa | 0 mm | - | - | - |
| 1778251992 | 11.67° C | 50% | 1009.9 hPa | 0 mm | - | - | - |
| 1778251092 | 11.11° C | 52% | 1009.7 hPa | 0 mm | - | - | - |
| 1778250912 | 11.11° C | 52% | 1010 hPa | 0 mm | - | - | - |
| 1778250431 | 11.11° C | 52% | 1010 hPa | 0 mm | - | - | - |
| 1778249711 | 10.56° C | 53% | 1010.2 hPa | 0 mm | - | - | - |
| 1778249411 | 10.56° C | 53% | 1010.2 hPa | 0 mm | - | - | - |
| 1778248991 | 10.56° C | 55% | 1010.2 hPa | 0 mm | - | - | - |
| 1778248113 | 11.11° C | 54% | 1009.9 hPa | 0 mm | - | - | - |
| 1778247251 | 10.56° C | 54% | 1009.6 hPa | 0 mm | - | - | - |
| 1778246771 | 10.56° C | 56% | 1009.8 hPa | 0 mm | - | - | - |
| 1778246291 | 10.56° C | 58% | 1009.7 hPa | 0 mm | - | - | - |
| 1778246111 | 10.56° C | 58% | 1009.6 hPa | 0 mm | - | - | - |
| 1778246051 | 10.56° C | 58% | 1009.7 hPa | 0 mm | - | - | - |
| 1778245212 | 10° C | 59% | 1009.3 hPa | 0 mm | - | - | - |
| 1778245151 | 9.44° C | 59% | 1009.4 hPa | 0 mm | - | - | - |
* Rain latest hour (hover to see other rain measurements)
** Current wind speed in m/s (hover to see current wind gust speed)